Regional Weather Roundup
Issued by NWS Newport/Morehead, NC

Home | Current Version | Previous Version | Text Only | Print | Product List | Glossary On
Versions: 1 2 3 4 5 6 7 8 9 10 11 12 13 14 15 16 17 18 19 20 21 22 23 24 25 26 27 28 29 30 31 32 33 34 35 36 37 38 39 40 41 42 43 44 45 46 47 48 49 50
000
ASUS42 KMHX 280422
RWRMHX
WEATHER ROUNDUP FOR EASTERN NORTH CAROLINA
NATIONAL WEATHER SERVICE NEWPORT/MOREHEAD CITY NC
1100 PM EST TUE JAN 27 2015

NOTE: "FAIR" INDICATES FEW OR NO CLOUDS BELOW 12,000 FEET
WITH NO SIGNIFICANT WEATHER AND/OR OBSTRUCTIONS TO VISIBILITY

NCZ015>017-031-032-045>047-102-103-280500-
NORTH COAST

CITY           SKY/WX    TMP DP  RH WIND       PRES   REMARKS
EDENTON        CLOUDY    35  30  83 NW5       29.93R
ELIZABETH CITY CLOUDY    34  27  75 NW8       29.91R
KITTY HAWK     MOCLDY    35  29  79 NW5       29.89R
MANTEO         CLOUDY    36  27  69 NW10G18   29.90R

$$

NCZ045>047-081-094-103-104-280500-
CENTRAL COAST

CITY           SKY/WX    TMP DP  RH WIND       PRES   REMARKS
FRISCO         CLOUDY    37  31  78 NW8G18    29.90R
SWANQUARTER    NOT AVBL

$$

NCZ095-097-098-100-101-280500-
SOUTHERN COAST

CITY           SKY/WX    TMP DP  RH WIND       PRES   REMARKS
BEAUFORT       CLEAR     34  29  82 NW7       29.94R
CEDAR ISLAND   NOT AVBL
JACKSONVILLE   CLEAR     28  26  92 CALM      29.94R
PINEY ISLAND     N/A    N/A N/A N/A MISG      29.92R
WILMINGTON     CLEAR     31  28  89 CALM      29.95R


$$

NCZ011>013-027>030-043-044-078>080-089-090>093-098-280500-
COASTAL PLAIN

CITY           SKY/WX    TMP DP  RH WIND       PRES   REMARKS
AHOSKIE        CLOUDY    33  29  85 CALM      29.95R
CLINTON        CLEAR     33  23  68 CALM      29.96R
ELIZABETHTOWN  CLEAR     37  15  41 NW8       29.97R
GOLDSBORO      CLEAR     32  27  83 NW2       29.94R
GREENVILLE     PTCLDY    30  30 100 CALM      29.98R
HAVELOCK       CLEAR     32  26  78 NW5       29.95R
KENANSVILLE    CLEAR     33  21  62 NW3       29.97R
KINSTON        CLEAR     26  25  96 CALM      29.96R
NEW BERN       CLEAR     30  25  81 CALM      29.95R
RICHLANDS      CLEAR     27  23  86 CALM      29.96R
ROCKY MOUNT    CLEAR     28  25  88 N3        29.96R
WASHINGTON     CLOUDY    34  29  80 NW3       29.94R
WHITEVILLE     CLEAR     36  19  49 CALM      29.96R

$$

AMZ130-135-150-152-154-156-158-170-250-252-270-ANZ085-086-088-633-658-670-280500-
MARINE OBSERVATIONS

STATION/POSITION TIME  TEMP    WIND        PRES    WAVE   SWELL
                       AIR SEA DIR/SP/G            HT/PER HT/PER
                 (UTC) (F)     (DEG/KT/KT) (MB)    (FT/S) (FT/S)
CHESAPEAKE LIGHT 0400   34     340/ 22/ 24 1012.9
64 E VA BEACH    0400   38 53  330/ 21/ 27 1010.5   13/13  11/13
DUCK             0400   36 43  330/ 18/ 24 1011.4
2 E DUCK         0400      43                N/A     7/13   5/13
10 NE DUCK       0400      45                N/A     9/13   7/13
OREGON INLET     0400   36 44  320/ 12/ 18 1012.5
13E OREGON INLT  0400      46                N/A    10/13   8/13
HATTERAS CG      0400   38 47  330/ 17/ 19 1012.7
DIAMOND BUOY     0400   41 69  340/ 19/ 23 1011.8    8/13   7/13
17 S OCRACOKE    NOT AVBL
CAPE LOOKOUT     0400   39     330/  9/ 11 1013.5
BEAUFORT LAB     0400   36 48  320/  3/  6 1012.7
27 SE WRIGHTSVLE NOT AVBL
5 SE WRIGHTSVLE  0400   44 53  270/ 10/ 12 1013.8
225 S CAPE HAT   0254   57 71  300/ 23/ 31 1010.5   13/ 8   8/13
41 SE CHARLESTON 0400   51 67  310/ 16/ 21 1015.0    4/ 5   2/12

$$



USA.gov is the U.S. government's official web portal to all federal, state and local government web resources and services.